sat.trackr.live / text

‹ back to catalog

STARLINK-32784

NORAD 62607 · 2025-008W

PAYLOAD ACTIVE UNKNOWN

§ Identity

Operator
Country
US
Launch date
2025-01-13
Launch site
AFETR
Launch vehicle
Mass (kg)
RCS (m²)

Purposes: comms

External: N2YO · Heavens-Above · Gunter

§ Orbital elements

Epoch: 2026-05-25T05:26:51.218880Z

Period
93.27 min
Inclination
42.9941°
Eccentricity
0.0015975
Mean motion
15.43918572 rev/d
Perigee alt
423.7 km
Apogee alt
445.4 km
Semi-major
6,812.7 km
B*
2.0101e-3
RAAN
197.5151°
Arg perigee
56.4271°
Mean anomaly
303.8110°
Rev number
7,742

§ Raw data

STARLINK-327841 62607U 25008W   26145.22698170  .00094804  00000+0  20101-2 0  99992 62607  42.9941 197.5151 0015975  56.4271 303.8110 15.43918572 77424

JSON: /api/v1/satellites/62607 · /tle

For live sub-satellite position, see the globe view (requires WebGL).

§ Visibility from observer

Set your observer location to see the next 7 days of passes ≥ 10°. The values pass through the URL so the page stays shareable.

No JS? Fill the form by hand. The geolocation button needs JavaScript.